Overview Statistics Trail Chart Weather Telemetry Raw packets
 

This is the latest recevied weather packets stored in our database for station/object EA7URS-13. If no packets are shown the sender has not sent any weather packets the latest 10 day(s).

<< 53 54 55 56 57 58 59 >>
Time Temp. Humidity Pressure Rain* Wind** Luminosity Snow
1788302186 24.44° C 58% 1011.8 hPa 0 mm - 0 W/m² -
1788301885 24.44° C 58% 1011.8 hPa 0 mm - 0 W/m² -
1788301584 23.89° C 61% 1011.7 hPa 0 mm - 0 W/m² -
1788301283 23.89° C 61% 1011.7 hPa 0 mm - 0 W/m² -
1788300981 24.44° C 61% 1011.8 hPa 0 mm - 0 W/m² -
1788300681 24.44° C 61% 1011.8 hPa 0 mm - 0 W/m² -
1788300379 24.44° C 61% 1011.8 hPa 0 mm - 0 W/m² -
1788300079 24.44° C 61% 1011.8 hPa 0 mm - 0 W/m² -
1788299777 24.44° C 60% 1011.7 hPa 0 mm - 0 W/m² -
1788299476 24.44° C 60% 1011.7 hPa 0 mm - 0 W/m² -
1788299175 24.44° C 59% 1011.9 hPa 0 mm - 0 W/m² -
1788298873 24.44° C 59% 1011.9 hPa 0 mm - 0 W/m² -
1788298572 25° C 59% 1011.9 hPa 0 mm - 0 W/m² -
1788298271 25° C 59% 1011.9 hPa 0 mm - 0 W/m² -
1788297970 25° C 61% 1011.8 hPa 0 mm - 0 W/m² -
1788297679 25° C 61% 1011.8 hPa 0 mm - 0 W/m² -
1788297368 25.56° C 61% 1011.7 hPa 0 mm - 0 W/m² -
1788297067 25.56° C 61% 1011.7 hPa 0 mm - 0 W/m² -
1788296766 26.11° C 60% 1011.4 hPa 0 mm - 0 W/m² -
1788296465 26.11° C 60% 1011.4 hPa 0 mm - 0 W/m² -
1788296164 26.67° C 57% 1011.2 hPa 0 mm - 0 W/m² -
1788295863 26.67° C 57% 1011.2 hPa 0 mm - 0 W/m² -
1788295562 26.67° C 57% 1011.1 hPa 0 mm - 0 W/m² -
1788295260 26.67° C 57% 1011.1 hPa 0 mm - 0 W/m² -
1788294959 27.22° C 57% 1010.8 hPa 0 mm - 0 W/m² -

* Rain latest hour (hover to see other rain measurements)
** Current wind speed in m/s (hover to see current wind gust speed)